#datetime,building,power
2022-12-16T00:00:00,axn,36.84
2022-12-16T00:01:00,axn,36.44
2022-12-16T00:02:00,axn,36.47
2022-12-16T00:03:00,axn,37.34
2022-12-16T00:04:00,axn,37.47
2022-12-16T00:05:00,axn,36.98
2022-12-16T00:06:00,axn,37.17
2022-12-16T00:07:00,axn,36.67
2022-12-16T00:08:00,axn,36.78
2022-12-16T00:09:00,axn,36.57
2022-12-16T00:10:00,axn,36.87
2022-12-16T00:11:00,axn,37.12
2022-12-16T00:12:00,axn,36.88
2022-12-16T00:13:00,axn,36.57
2022-12-16T00:14:00,axn,36.53
2022-12-16T00:15:00,axn,36.61
2022-12-16T00:16:00,axn,36.62
2022-12-16T00:17:00,axn,36.58
2022-12-16T00:18:00,axn,36.56
2022-12-16T00:19:00,axn,36.45
2022-12-16T00:20:00,axn,36.54
2022-12-16T00:21:00,axn,36.37
2022-12-16T00:22:00,axn,36.38
2022-12-16T00:23:00,axn,36.44
2022-12-16T00:24:00,axn,36.54
2022-12-16T00:25:00,axn,36.58
2022-12-16T00:26:00,axn,36.50
2022-12-16T00:27:00,axn,36.55
2022-12-16T00:28:00,axn,36.27
2022-12-16T00:29:00,axn,35.97
2022-12-16T00:30:00,axn,36.09
2022-12-16T00:31:00,axn,36.32
2022-12-16T00:32:00,axn,36.23
2022-12-16T00:33:00,axn,36.17
2022-12-16T00:34:00,axn,35.99
2022-12-16T00:35:00,axn,36.51
2022-12-16T00:36:00,axn,36.06
2022-12-16T00:37:00,axn,36.10
2022-12-16T00:38:00,axn,35.95
2022-12-16T00:39:00,axn,36.04
2022-12-16T00:40:00,axn,36.31
2022-12-16T00:41:00,axn,36.15
2022-12-16T00:42:00,axn,36.35
2022-12-16T00:43:00,axn,36.03
2022-12-16T00:44:00,axn,36.03
2022-12-16T00:45:00,axn,36.02
2022-12-16T00:46:00,axn,36.45
2022-12-16T00:47:00,axn,36.54
2022-12-16T00:48:00,axn,32.88
2022-12-16T00:49:00,axn,31.49
2022-12-16T00:50:00,axn,31.72
2022-12-16T00:51:00,axn,31.36
2022-12-16T00:52:00,axn,31.39
2022-12-16T00:53:00,axn,31.16
2022-12-16T00:54:00,axn,31.20
2022-12-16T00:55:00,axn,31.19
2022-12-16T00:56:00,axn,34.26
2022-12-16T00:57:00,axn,34.50
2022-12-16T00:58:00,axn,34.03
2022-12-16T00:59:00,axn,31.37
2022-12-16T01:00:00,axn,31.24
2022-12-16T01:01:00,axn,31.29
2022-12-16T01:02:00,axn,31.72
2022-12-16T01:03:00,axn,31.32
2022-12-16T01:04:00,axn,31.29
2022-12-16T01:05:00,axn,31.52
2022-12-16T01:06:00,axn,31.92
2022-12-16T01:07:00,axn,31.49
2022-12-16T01:08:00,axn,31.57
2022-12-16T01:09:00,axn,31.09
2022-12-16T01:10:00,axn,31.16
2022-12-16T01:11:00,axn,31.26
2022-12-16T01:12:00,axn,34.50
2022-12-16T01:13:00,axn,34.18
2022-12-16T01:14:00,axn,31.58
2022-12-16T01:15:00,axn,31.24
2022-12-16T01:16:00,axn,31.15
2022-12-16T01:17:00,axn,31.10
2022-12-16T01:18:00,axn,31.21
2022-12-16T01:19:00,axn,31.20
2022-12-16T01:20:00,axn,31.06
2022-12-16T01:21:00,axn,31.56
2022-12-16T01:22:00,axn,31.27
2022-12-16T01:23:00,axn,31.27
2022-12-16T01:24:00,axn,31.37
2022-12-16T01:25:00,axn,31.38
2022-12-16T01:26:00,axn,31.41
2022-12-16T01:27:00,axn,31.94
2022-12-16T01:28:00,axn,31.66
2022-12-16T01:29:00,axn,31.68
2022-12-16T01:30:00,axn,31.73
2022-12-16T01:31:00,axn,31.58
2022-12-16T01:32:00,axn,31.85
2022-12-16T01:33:00,axn,35.56
2022-12-16T01:34:00,axn,36.47
2022-12-16T01:35:00,axn,36.76
2022-12-16T01:36:00,axn,36.22
2022-12-16T01:37:00,axn,35.47
2022-12-16T01:38:00,axn,35.73
2022-12-16T01:39:00,axn,36.02
2022-12-16T01:40:00,axn,36.09
2022-12-16T01:41:00,axn,35.93
2022-12-16T01:42:00,axn,35.87
2022-12-16T01:43:00,axn,35.88
2022-12-16T01:44:00,axn,35.87
2022-12-16T01:45:00,axn,35.71
2022-12-16T01:46:00,axn,35.78
2022-12-16T01:47:00,axn,35.94
2022-12-16T01:48:00,axn,36.09
2022-12-16T01:49:00,axn,35.61
2022-12-16T01:50:00,axn,35.78
2022-12-16T01:51:00,axn,35.68
2022-12-16T01:52:00,axn,35.67
2022-12-16T01:53:00,axn,41.73
2022-12-16T01:54:00,axn,41.73
2022-12-16T01:55:00,axn,41.56
2022-12-16T01:56:00,axn,35.75
2022-12-16T01:57:00,axn,35.87
2022-12-16T01:58:00,axn,35.89
2022-12-16T01:59:00,axn,36.05
2022-12-16T02:00:00,axn,35.93
2022-12-16T02:01:00,axn,36.09
2022-12-16T02:02:00,axn,35.86
2022-12-16T02:03:00,axn,35.94
2022-12-16T02:04:00,axn,36.88
2022-12-16T02:05:00,axn,36.29
2022-12-16T02:06:00,axn,36.45
2022-12-16T02:07:00,axn,36.92
2022-12-16T02:08:00,axn,36.51
2022-12-16T02:09:00,axn,35.95
2022-12-16T02:10:00,axn,36.12
2022-12-16T02:11:00,axn,36.19
2022-12-16T02:12:00,axn,36.06
2022-12-16T02:13:00,axn,35.89
2022-12-16T02:14:00,axn,35.95
2022-12-16T02:15:00,axn,36.27
2022-12-16T02:16:00,axn,36.29
2022-12-16T02:17:00,axn,36.95
2022-12-16T02:18:00,axn,35.53
2022-12-16T02:19:00,axn,35.92
2022-12-16T02:20:00,axn,35.75
2022-12-16T02:21:00,axn,35.20
2022-12-16T02:22:00,axn,35.30
2022-12-16T02:23:00,axn,35.83
2022-12-16T02:24:00,axn,35.43
2022-12-16T02:25:00,axn,35.07
2022-12-16T02:26:00,axn,35.28
2022-12-16T02:27:00,axn,36.16
2022-12-16T02:28:00,axn,35.72
2022-12-16T02:29:00,axn,36.64
2022-12-16T02:30:00,axn,36.43
2022-12-16T02:31:00,axn,36.48
2022-12-16T02:32:00,axn,36.14
2022-12-16T02:33:00,axn,35.80
2022-12-16T02:34:00,axn,46.64
2022-12-16T02:35:00,axn,47.22
2022-12-16T02:36:00,axn,47.26
2022-12-16T02:37:00,axn,47.10
2022-12-16T02:38:00,axn,36.62
2022-12-16T02:39:00,axn,36.75
2022-12-16T02:40:00,axn,36.77
2022-12-16T02:41:00,axn,39.51
2022-12-16T02:42:00,axn,39.39
2022-12-16T02:43:00,axn,39.01
2022-12-16T02:44:00,axn,38.98
2022-12-16T02:45:00,axn,36.69
2022-12-16T02:46:00,axn,36.65
2022-12-16T02:47:00,axn,36.60
2022-12-16T02:48:00,axn,36.28
2022-12-16T02:49:00,axn,36.47
2022-12-16T02:50:00,axn,36.96
2022-12-16T02:51:00,axn,36.45
2022-12-16T02:52:00,axn,55.65
2022-12-16T02:53:00,axn,36.73
2022-12-16T02:54:00,axn,36.52
2022-12-16T02:55:00,axn,36.65
2022-12-16T02:56:00,axn,36.59
2022-12-16T02:57:00,axn,36.45
2022-12-16T02:58:00,axn,36.54
2022-12-16T02:59:00,axn,36.86
2022-12-16T03:00:00,axn,36.55
2022-12-16T03:01:00,axn,36.76
2022-12-16T03:02:00,axn,36.51
2022-12-16T03:03:00,axn,36.87
2022-12-16T03:04:00,axn,36.73
2022-12-16T03:05:00,axn,36.71
2022-12-16T03:06:00,axn,36.97
2022-12-16T03:07:00,axn,36.70
2022-12-16T03:08:00,axn,36.54
2022-12-16T03:09:00,axn,36.25
2022-12-16T03:10:00,axn,36.54
2022-12-16T03:11:00,axn,32.85
2022-12-16T03:12:00,axn,32.79
2022-12-16T03:13:00,axn,31.59
2022-12-16T03:14:00,axn,31.70
2022-12-16T03:15:00,axn,31.57
2022-12-16T03:16:00,axn,30.97
2022-12-16T03:17:00,axn,31.42
2022-12-16T03:18:00,axn,31.18
2022-12-16T03:19:00,axn,31.07
2022-12-16T03:20:00,axn,31.03
2022-12-16T03:21:00,axn,34.54
2022-12-16T03:22:00,axn,36.07
2022-12-16T03:23:00,axn,35.82
2022-12-16T03:24:00,axn,35.57
2022-12-16T03:25:00,axn,35.52
2022-12-16T03:26:00,axn,35.36
2022-12-16T03:27:00,axn,35.59
2022-12-16T03:28:00,axn,35.89
2022-12-16T03:29:00,axn,35.12
2022-12-16T03:30:00,axn,34.93
2022-12-16T03:31:00,axn,35.19
2022-12-16T03:32:00,axn,34.80
2022-12-16T03:33:00,axn,34.79
2022-12-16T03:34:00,axn,34.88
2022-12-16T03:35:00,axn,35.24
2022-12-16T03:36:00,axn,35.26
2022-12-16T03:37:00,axn,35.34
2022-12-16T03:38:00,axn,35.27
2022-12-16T03:39:00,axn,34.77
2022-12-16T03:40:00,axn,35.06
2022-12-16T03:41:00,axn,34.98
2022-12-16T03:42:00,axn,35.08
2022-12-16T03:43:00,axn,35.24
2022-12-16T03:44:00,axn,37.68
2022-12-16T03:45:00,axn,34.80
2022-12-16T03:46:00,axn,34.86
2022-12-16T03:47:00,axn,35.14
2022-12-16T03:48:00,axn,34.86
2022-12-16T03:49:00,axn,34.64
2022-12-16T03:50:00,axn,34.59
2022-12-16T03:51:00,axn,34.48
2022-12-16T03:52:00,axn,34.95
2022-12-16T03:53:00,axn,34.94
2022-12-16T03:54:00,axn,34.98
2022-12-16T03:55:00,axn,31.32
2022-12-16T03:56:00,axn,31.45
2022-12-16T03:57:00,axn,30.19
2022-12-16T03:58:00,axn,29.87
2022-12-16T03:59:00,axn,29.68
2022-12-16T04:00:00,axn,29.97
2022-12-16T04:01:00,axn,29.63
2022-12-16T04:02:00,axn,29.76
2022-12-16T04:03:00,axn,29.55
2022-12-16T04:04:00,axn,29.41
2022-12-16T04:05:00,axn,29.32
2022-12-16T04:06:00,axn,29.52
2022-12-16T04:07:00,axn,30.02
2022-12-16T04:08:00,axn,29.62
2022-12-16T04:09:00,axn,29.66
2022-12-16T04:10:00,axn,29.57
2022-12-16T04:11:00,axn,29.49
2022-12-16T04:12:00,axn,29.75
2022-12-16T04:13:00,axn,44.78
2022-12-16T04:14:00,axn,44.36
2022-12-16T04:15:00,axn,44.33
2022-12-16T04:16:00,axn,44.28
2022-12-16T04:17:00,axn,44.09
2022-12-16T04:18:00,axn,43.50
2022-12-16T04:19:00,axn,29.79
2022-12-16T04:20:00,axn,29.46
2022-12-16T04:21:00,axn,29.39
2022-12-16T04:22:00,axn,29.51
2022-12-16T04:23:00,axn,29.46
2022-12-16T04:24:00,axn,29.61
2022-12-16T04:25:00,axn,29.65
2022-12-16T04:26:00,axn,29.44
2022-12-16T04:27:00,axn,29.51
2022-12-16T04:28:00,axn,29.32
2022-12-16T04:29:00,axn,29.45
2022-12-16T04:30:00,axn,29.23
2022-12-16T04:31:00,axn,29.21
2022-12-16T04:32:00,axn,29.32
2022-12-16T04:33:00,axn,29.34
2022-12-16T04:34:00,axn,29.60
2022-12-16T04:35:00,axn,29.19
2022-12-16T04:36:00,axn,29.36
2022-12-16T04:37:00,axn,29.41
2022-12-16T04:38:00,axn,29.48
2022-12-16T04:39:00,axn,31.75
2022-12-16T04:40:00,axn,31.98
2022-12-16T04:41:00,axn,32.18
2022-12-16T04:42:00,axn,29.47
2022-12-16T04:43:00,axn,29.20
2022-12-16T04:44:00,axn,29.19
2022-12-16T04:45:00,axn,29.14
2022-12-16T04:46:00,axn,29.19
2022-12-16T04:47:00,axn,29.33
2022-12-16T04:48:00,axn,29.48
2022-12-16T04:49:00,axn,29.53
2022-12-16T04:50:00,axn,29.41
2022-12-16T04:51:00,axn,29.37
2022-12-16T04:52:00,axn,29.59
2022-12-16T04:53:00,axn,29.48
2022-12-16T04:54:00,axn,29.81
2022-12-16T04:55:00,axn,29.68
2022-12-16T04:56:00,axn,29.80
2022-12-16T04:57:00,axn,29.55
2022-12-16T04:58:00,axn,29.53
2022-12-16T04:59:00,axn,29.55
2022-12-16T05:00:00,axn,29.53
2022-12-16T05:01:00,axn,30.20
2022-12-16T05:02:00,axn,31.42
2022-12-16T05:03:00,axn,31.93
2022-12-16T05:04:00,axn,32.25
2022-12-16T05:05:00,axn,31.61
2022-12-16T05:06:00,axn,31.26
2022-12-16T05:07:00,axn,31.36
2022-12-16T05:08:00,axn,31.28
2022-12-16T05:09:00,axn,31.02
2022-12-16T05:10:00,axn,31.53
2022-12-16T05:11:00,axn,30.97
2022-12-16T05:12:00,axn,31.37
2022-12-16T05:13:00,axn,31.14
2022-12-16T05:14:00,axn,31.40
2022-12-16T05:15:00,axn,31.64
2022-12-16T05:16:00,axn,31.42
2022-12-16T05:17:00,axn,31.40
2022-12-16T05:18:00,axn,31.79
2022-12-16T05:19:00,axn,31.26
2022-12-16T05:20:00,axn,31.37
2022-12-16T05:21:00,axn,31.22
2022-12-16T05:22:00,axn,31.09
2022-12-16T05:23:00,axn,31.45
2022-12-16T05:24:00,axn,31.34
2022-12-16T05:25:00,axn,31.37
2022-12-16T05:26:00,axn,31.53
2022-12-16T05:27:00,axn,31.74
2022-12-16T05:28:00,axn,31.65
2022-12-16T05:29:00,axn,31.54
2022-12-16T05:30:00,axn,31.57
2022-12-16T05:31:00,axn,31.78
2022-12-16T05:32:00,axn,31.59
2022-12-16T05:33:00,axn,31.58
2022-12-16T05:34:00,axn,31.41
2022-12-16T05:35:00,axn,31.83
2022-12-16T05:36:00,axn,31.66
2022-12-16T05:37:00,axn,31.47
2022-12-16T05:38:00,axn,30.96
2022-12-16T05:39:00,axn,30.96
2022-12-16T05:40:00,axn,31.44
2022-12-16T05:41:00,axn,31.21
2022-12-16T05:42:00,axn,31.08
2022-12-16T05:43:00,axn,31.04
2022-12-16T05:44:00,axn,31.15
2022-12-16T05:45:00,axn,30.55
2022-12-16T05:46:00,axn,30.86
2022-12-16T05:47:00,axn,30.76
2022-12-16T05:48:00,axn,30.92
2022-12-16T05:49:00,axn,30.74
2022-12-16T05:50:00,axn,30.76
2022-12-16T05:51:00,axn,31.12
2022-12-16T05:52:00,axn,30.93
2022-12-16T05:53:00,axn,30.80
2022-12-16T05:54:00,axn,30.95
2022-12-16T05:55:00,axn,30.58
2022-12-16T05:56:00,axn,30.82
2022-12-16T05:57:00,axn,30.92
2022-12-16T05:58:00,axn,30.63
2022-12-16T05:59:00,axn,31.00
2022-12-16T06:00:00,axn,31.23
2022-12-16T06:01:00,axn,30.92
2022-12-16T06:02:00,axn,31.58
2022-12-16T06:03:00,axn,30.77
2022-12-16T06:04:00,axn,31.44
2022-12-16T06:05:00,axn,31.51
2022-12-16T06:06:00,axn,31.51
2022-12-16T06:07:00,axn,31.00
2022-12-16T06:08:00,axn,31.01
2022-12-16T06:09:00,axn,31.17
2022-12-16T06:10:00,axn,31.02
2022-12-16T06:11:00,axn,31.18
2022-12-16T06:12:00,axn,31.08
2022-12-16T06:13:00,axn,30.72
2022-12-16T06:14:00,axn,31.19
2022-12-16T06:15:00,axn,30.61
2022-12-16T06:16:00,axn,30.61
2022-12-16T06:17:00,axn,30.38
2022-12-16T06:18:00,axn,30.56
2022-12-16T06:19:00,axn,33.02
2022-12-16T06:20:00,axn,33.11
2022-12-16T06:21:00,axn,29.79
2022-12-16T06:22:00,axn,29.94
2022-12-16T06:23:00,axn,29.76
2022-12-16T06:24:00,axn,29.85
2022-12-16T06:25:00,axn,29.77
2022-12-16T06:26:00,axn,29.68
2022-12-16T06:27:00,axn,29.60
2022-12-16T06:28:00,axn,29.45
2022-12-16T06:29:00,axn,29.72
2022-12-16T06:30:00,axn,29.70
2022-12-16T06:31:00,axn,29.36
2022-12-16T06:32:00,axn,29.78
2022-12-16T06:33:00,axn,29.27
2022-12-16T06:34:00,axn,39.61
2022-12-16T06:35:00,axn,39.50
2022-12-16T06:36:00,axn,39.44
2022-12-16T06:37:00,axn,39.27
2022-12-16T06:38:00,axn,29.40
2022-12-16T06:39:00,axn,29.13
2022-12-16T06:40:00,axn,29.73
2022-12-16T06:41:00,axn,29.28
2022-12-16T06:42:00,axn,29.41
2022-12-16T06:43:00,axn,32.30
2022-12-16T06:44:00,axn,32.21
2022-12-16T06:45:00,axn,32.31
2022-12-16T06:46:00,axn,29.63
2022-12-16T06:47:00,axn,29.37
2022-12-16T06:48:00,axn,29.54
2022-12-16T06:49:00,axn,44.71
2022-12-16T06:50:00,axn,29.40
2022-12-16T06:51:00,axn,29.47
2022-12-16T06:52:00,axn,29.60
2022-12-16T06:53:00,axn,29.66
2022-12-16T06:54:00,axn,29.49
2022-12-16T06:55:00,axn,29.08
2022-12-16T06:56:00,axn,29.07
2022-12-16T06:57:00,axn,28.84
2022-12-16T06:58:00,axn,29.06
2022-12-16T06:59:00,axn,28.81
2022-12-16T07:00:00,axn,32.96
2022-12-16T07:01:00,axn,36.23
2022-12-16T07:02:00,axn,36.48
2022-12-16T07:03:00,axn,32.44
2022-12-16T07:04:00,axn,32.80
2022-12-16T07:05:00,axn,33.29
2022-12-16T07:06:00,axn,33.05
2022-12-16T07:07:00,axn,33.51
2022-12-16T07:08:00,axn,33.43
2022-12-16T07:09:00,axn,33.59
2022-12-16T07:10:00,axn,33.85
2022-12-16T07:11:00,axn,33.90
2022-12-16T07:12:00,axn,34.02
2022-12-16T07:13:00,axn,33.98
2022-12-16T07:14:00,axn,34.22
2022-12-16T07:15:00,axn,34.12
2022-12-16T07:16:00,axn,34.59
2022-12-16T07:17:00,axn,34.70
2022-12-16T07:18:00,axn,34.42
2022-12-16T07:19:00,axn,34.43
2022-12-16T07:20:00,axn,34.21
2022-12-16T07:21:00,axn,34.45
2022-12-16T07:22:00,axn,34.43
2022-12-16T07:23:00,axn,34.18
2022-12-16T07:24:00,axn,34.11
2022-12-16T07:25:00,axn,34.73
2022-12-16T07:26:00,axn,34.05
2022-12-16T07:27:00,axn,34.12
2022-12-16T07:28:00,axn,34.23
2022-12-16T07:29:00,axn,34.13
2022-12-16T07:30:00,axn,34.06
2022-12-16T07:31:00,axn,34.18
2022-12-16T07:32:00,axn,34.55
2022-12-16T07:33:00,axn,34.78
2022-12-16T07:34:00,axn,34.29
2022-12-16T07:35:00,axn,34.39
2022-12-16T07:36:00,axn,34.48
2022-12-16T07:37:00,axn,34.44
2022-12-16T07:38:00,axn,34.30
2022-12-16T07:39:00,axn,34.12
2022-12-16T07:40:00,axn,34.46
2022-12-16T07:41:00,axn,34.64
2022-12-16T07:42:00,axn,34.43
2022-12-16T07:43:00,axn,34.31
2022-12-16T07:44:00,axn,34.38
2022-12-16T07:45:00,axn,34.48
2022-12-16T07:46:00,axn,34.36
2022-12-16T07:47:00,axn,34.40
2022-12-16T07:48:00,axn,40.64
2022-12-16T07:49:00,axn,40.36
2022-12-16T07:50:00,axn,41.64
2022-12-16T07:51:00,axn,40.98
2022-12-16T07:52:00,axn,35.35
2022-12-16T07:53:00,axn,37.97
2022-12-16T07:54:00,axn,37.92
2022-12-16T07:55:00,axn,37.89
2022-12-16T07:56:00,axn,38.13
2022-12-16T07:57:00,axn,35.64
2022-12-16T07:58:00,axn,36.10
2022-12-16T07:59:00,axn,35.72
2022-12-16T08:00:00,axn,35.84
2022-12-16T08:01:00,axn,35.77
2022-12-16T08:02:00,axn,39.47
2022-12-16T08:03:00,axn,39.57
2022-12-16T08:04:00,axn,39.47
2022-12-16T08:05:00,axn,39.52
2022-12-16T08:06:00,axn,39.65
2022-12-16T08:07:00,axn,39.58
2022-12-16T08:08:00,axn,39.56
2022-12-16T08:09:00,axn,39.62
2022-12-16T08:10:00,axn,39.68
2022-12-16T08:11:00,axn,39.58
2022-12-16T08:12:00,axn,39.60
2022-12-16T08:13:00,axn,39.56
2022-12-16T08:14:00,axn,39.18
2022-12-16T08:15:00,axn,39.26
2022-12-16T08:16:00,axn,39.71
2022-12-16T08:17:00,axn,39.51
2022-12-16T08:18:00,axn,39.17
2022-12-16T08:19:00,axn,39.09
2022-12-16T08:20:00,axn,39.15
2022-12-16T08:21:00,axn,39.45
2022-12-16T08:22:00,axn,39.77
2022-12-16T08:23:00,axn,39.68
2022-12-16T08:24:00,axn,39.54
2022-12-16T08:25:00,axn,39.31
2022-12-16T08:26:00,axn,39.23
2022-12-16T08:27:00,axn,39.46
2022-12-16T08:28:00,axn,39.45
2022-12-16T08:29:00,axn,39.27
2022-12-16T08:30:00,axn,39.19
2022-12-16T08:31:00,axn,39.26
2022-12-16T08:32:00,axn,56.16
2022-12-16T08:33:00,axn,38.71
2022-12-16T08:34:00,axn,38.46
2022-12-16T08:35:00,axn,41.41
2022-12-16T08:36:00,axn,41.48
2022-12-16T08:37:00,axn,38.50
2022-12-16T08:38:00,axn,38.92
2022-12-16T08:39:00,axn,38.47
2022-12-16T08:40:00,axn,38.50
2022-12-16T08:41:00,axn,38.38
2022-12-16T08:42:00,axn,38.41
2022-12-16T08:43:00,axn,38.46
2022-12-16T08:44:00,axn,38.37
2022-12-16T08:45:00,axn,38.44
2022-12-16T08:46:00,axn,38.31
2022-12-16T08:47:00,axn,38.19
2022-12-16T08:48:00,axn,38.29
2022-12-16T08:49:00,axn,38.46
2022-12-16T08:50:00,axn,38.39
2022-12-16T08:51:00,axn,38.39
2022-12-16T08:52:00,axn,38.49
2022-12-16T08:53:00,axn,38.62
2022-12-16T08:54:00,axn,38.49
2022-12-16T08:55:00,axn,38.25
2022-12-16T08:56:00,axn,38.83
2022-12-16T08:57:00,axn,39.26
2022-12-16T08:58:00,axn,39.08
2022-12-16T08:59:00,axn,38.98
2022-12-16T09:00:00,axn,39.05
2022-12-16T09:01:00,axn,39.22
2022-12-16T09:02:00,axn,39.83
2022-12-16T09:03:00,axn,39.93
2022-12-16T09:04:00,axn,40.18
2022-12-16T09:05:00,axn,39.72
2022-12-16T09:06:00,axn,39.54
2022-12-16T09:07:00,axn,39.62
2022-12-16T09:08:00,axn,39.43
2022-12-16T09:09:00,axn,39.84
2022-12-16T09:10:00,axn,42.35
2022-12-16T09:11:00,axn,42.47
2022-12-16T09:12:00,axn,42.64
2022-12-16T09:13:00,axn,39.82
2022-12-16T09:14:00,axn,39.29
2022-12-16T09:15:00,axn,39.57
2022-12-16T09:16:00,axn,40.07
2022-12-16T09:17:00,axn,40.30
2022-12-16T09:18:00,axn,39.67
2022-12-16T09:19:00,axn,42.29
2022-12-16T09:20:00,axn,39.47
2022-12-16T09:21:00,axn,38.72
2022-12-16T09:22:00,axn,38.93
2022-12-16T09:23:00,axn,39.10
2022-12-16T09:24:00,axn,39.16
2022-12-16T09:25:00,axn,39.45
2022-12-16T09:26:00,axn,39.25
2022-12-16T09:27:00,axn,39.04
2022-12-16T09:28:00,axn,38.96
2022-12-16T09:29:00,axn,38.79
2022-12-16T09:30:00,axn,39.04
2022-12-16T09:31:00,axn,38.63
2022-12-16T09:32:00,axn,38.82
2022-12-16T09:33:00,axn,38.84
2022-12-16T09:34:00,axn,38.71
2022-12-16T09:35:00,axn,38.65
2022-12-16T09:36:00,axn,39.76
2022-12-16T09:37:00,axn,39.70
2022-12-16T09:38:00,axn,39.80
2022-12-16T09:39:00,axn,39.88
2022-12-16T09:40:00,axn,39.90
2022-12-16T09:41:00,axn,39.72
2022-12-16T09:42:00,axn,39.84
2022-12-16T09:43:00,axn,39.89
2022-12-16T09:44:00,axn,39.84
2022-12-16T09:45:00,axn,39.63
2022-12-16T09:46:00,axn,39.76
2022-12-16T09:47:00,axn,39.82
2022-12-16T09:48:00,axn,39.88
2022-12-16T09:49:00,axn,39.76
2022-12-16T09:50:00,axn,39.73
2022-12-16T09:51:00,axn,39.63
2022-12-16T09:52:00,axn,39.72
2022-12-16T09:53:00,axn,39.73
2022-12-16T09:54:00,axn,39.63
2022-12-16T09:55:00,axn,39.99
2022-12-16T09:56:00,axn,39.65
2022-12-16T09:57:00,axn,39.52
2022-12-16T09:58:00,axn,39.65
2022-12-16T09:59:00,axn,39.73
2022-12-16T10:00:00,axn,39.41
2022-12-16T10:01:00,axn,39.70
2022-12-16T10:02:00,axn,39.81
2022-12-16T10:03:00,axn,40.31
2022-12-16T10:04:00,axn,41.11
2022-12-16T10:05:00,axn,41.09
2022-12-16T10:06:00,axn,55.51
2022-12-16T10:07:00,axn,55.23
2022-12-16T10:08:00,axn,55.18
2022-12-16T10:09:00,axn,55.13
2022-12-16T10:10:00,axn,55.20
2022-12-16T10:11:00,axn,54.89
2022-12-16T10:12:00,axn,41.17
2022-12-16T10:13:00,axn,41.00
2022-12-16T10:14:00,axn,40.54
2022-12-16T10:15:00,axn,40.90
2022-12-16T10:16:00,axn,40.78
2022-12-16T10:17:00,axn,52.06
2022-12-16T10:18:00,axn,50.70
2022-12-16T10:19:00,axn,50.42
2022-12-16T10:20:00,axn,50.14
2022-12-16T10:21:00,axn,40.86
2022-12-16T10:22:00,axn,56.02
2022-12-16T10:23:00,axn,41.06
2022-12-16T10:24:00,axn,40.76
2022-12-16T10:25:00,axn,41.39
2022-12-16T10:26:00,axn,43.63
2022-12-16T10:27:00,axn,44.07
2022-12-16T10:28:00,axn,40.85
2022-12-16T10:29:00,axn,40.71
2022-12-16T10:30:00,axn,40.86
2022-12-16T10:31:00,axn,40.86
2022-12-16T10:32:00,axn,40.64
2022-12-16T10:33:00,axn,41.12
2022-12-16T10:34:00,axn,40.95
2022-12-16T10:35:00,axn,40.68
2022-12-16T10:36:00,axn,40.51
2022-12-16T10:37:00,axn,40.77
2022-12-16T10:38:00,axn,40.99
2022-12-16T10:39:00,axn,40.83
2022-12-16T10:40:00,axn,41.01
2022-12-16T10:41:00,axn,40.79
2022-12-16T10:42:00,axn,40.55
2022-12-16T10:43:00,axn,40.69
2022-12-16T10:44:00,axn,40.82
2022-12-16T10:45:00,axn,41.36
2022-12-16T10:46:00,axn,41.19
2022-12-16T10:47:00,axn,41.18
2022-12-16T10:48:00,axn,41.21
2022-12-16T10:49:00,axn,40.76
2022-12-16T10:50:00,axn,40.76
2022-12-16T10:51:00,axn,41.08
2022-12-16T10:52:00,axn,40.45
2022-12-16T10:53:00,axn,40.38
2022-12-16T10:54:00,axn,40.58
2022-12-16T10:55:00,axn,40.34
2022-12-16T10:56:00,axn,40.53
2022-12-16T10:57:00,axn,40.78
2022-12-16T10:58:00,axn,43.65
2022-12-16T10:59:00,axn,43.57
2022-12-16T11:00:00,axn,43.77
2022-12-16T11:01:00,axn,43.94
2022-12-16T11:02:00,axn,40.80
2022-12-16T11:03:00,axn,40.66
2022-12-16T11:04:00,axn,40.71
2022-12-16T11:05:00,axn,40.67
2022-12-16T11:06:00,axn,41.47
2022-12-16T11:07:00,axn,40.64
2022-12-16T11:08:00,axn,40.61
2022-12-16T11:09:00,axn,40.10
2022-12-16T11:10:00,axn,40.07
2022-12-16T11:11:00,axn,40.07
2022-12-16T11:12:00,axn,40.03
2022-12-16T11:13:00,axn,39.60
2022-12-16T11:14:00,axn,39.90
2022-12-16T11:15:00,axn,39.38
2022-12-16T11:16:00,axn,39.51
2022-12-16T11:17:00,axn,39.62
2022-12-16T11:18:00,axn,39.65
2022-12-16T11:19:00,axn,39.59
2022-12-16T11:20:00,axn,39.45
2022-12-16T11:21:00,axn,39.61
2022-12-16T11:22:00,axn,40.21
2022-12-16T11:23:00,axn,39.70
2022-12-16T11:24:00,axn,39.47
2022-12-16T11:25:00,axn,39.47
2022-12-16T11:26:00,axn,39.01
2022-12-16T11:27:00,axn,39.48
2022-12-16T11:28:00,axn,39.19
2022-12-16T11:29:00,axn,39.36
2022-12-16T11:30:00,axn,38.40
2022-12-16T11:31:00,axn,38.44
2022-12-16T11:32:00,axn,38.52
2022-12-16T11:33:00,axn,38.36
2022-12-16T11:34:00,axn,38.65
2022-12-16T11:35:00,axn,38.59
2022-12-16T11:36:00,axn,38.32
2022-12-16T11:37:00,axn,38.58
2022-12-16T11:38:00,axn,44.63
2022-12-16T11:39:00,axn,44.64
2022-12-16T11:40:00,axn,44.44
2022-12-16T11:41:00,axn,38.64
2022-12-16T11:42:00,axn,38.47
2022-12-16T11:43:00,axn,38.72
2022-12-16T11:44:00,axn,38.54
2022-12-16T11:45:00,axn,38.79
2022-12-16T11:46:00,axn,38.55
2022-12-16T11:47:00,axn,38.43
2022-12-16T11:48:00,axn,38.51
2022-12-16T11:49:00,axn,38.97
2022-12-16T11:50:00,axn,39.00
2022-12-16T11:51:00,axn,38.91
2022-12-16T11:52:00,axn,38.88
2022-12-16T11:53:00,axn,38.98
2022-12-16T11:54:00,axn,39.52
2022-12-16T11:55:00,axn,39.02
2022-12-16T11:56:00,axn,38.92
2022-12-16T11:57:00,axn,38.82
2022-12-16T11:58:00,axn,38.53
2022-12-16T11:59:00,axn,43.44
2022-12-16T12:00:00,axn,43.64
2022-12-16T12:01:00,axn,43.99
2022-12-16T12:02:00,axn,43.93
2022-12-16T12:03:00,axn,39.40
2022-12-16T12:04:00,axn,39.38
2022-12-16T12:05:00,axn,39.14
2022-12-16T12:06:00,axn,39.82
2022-12-16T12:07:00,axn,39.14
2022-12-16T12:08:00,axn,39.23
2022-12-16T12:09:00,axn,40.01
2022-12-16T12:10:00,axn,43.18
2022-12-16T12:11:00,axn,39.46
2022-12-16T12:12:00,axn,39.27
2022-12-16T12:13:00,axn,39.18
2022-12-16T12:14:00,axn,39.46
2022-12-16T12:15:00,axn,39.51
2022-12-16T12:16:00,axn,39.58
2022-12-16T12:17:00,axn,39.85
2022-12-16T12:18:00,axn,39.68
2022-12-16T12:19:00,axn,39.61
2022-12-16T12:20:00,axn,39.65
2022-12-16T12:21:00,axn,40.03
2022-12-16T12:22:00,axn,40.56
2022-12-16T12:23:00,axn,40.09
2022-12-16T12:24:00,axn,39.78
2022-12-16T12:25:00,axn,39.83
2022-12-16T12:26:00,axn,39.78
2022-12-16T12:27:00,axn,39.81
2022-12-16T12:28:00,axn,40.01
2022-12-16T12:29:00,axn,39.80
2022-12-16T12:30:00,axn,40.16
2022-12-16T12:31:00,axn,39.52
2022-12-16T12:32:00,axn,39.61
2022-12-16T12:33:00,axn,39.76
2022-12-16T12:34:00,axn,39.70
2022-12-16T12:35:00,axn,39.68
2022-12-16T12:36:00,axn,39.63
2022-12-16T12:37:00,axn,39.72
2022-12-16T12:38:00,axn,39.66
2022-12-16T12:39:00,axn,39.51
2022-12-16T12:40:00,axn,39.82
2022-12-16T12:41:00,axn,39.54
2022-12-16T12:42:00,axn,39.48
2022-12-16T12:43:00,axn,39.61
2022-12-16T12:44:00,axn,40.68
2022-12-16T12:45:00,axn,39.96
2022-12-16T12:46:00,axn,39.95
2022-12-16T12:47:00,axn,39.98
2022-12-16T12:48:00,axn,39.77
2022-12-16T12:49:00,axn,39.35
2022-12-16T12:50:00,axn,39.33
2022-12-16T12:51:00,axn,39.84
2022-12-16T12:52:00,axn,39.49
2022-12-16T12:53:00,axn,39.77
2022-12-16T12:54:00,axn,39.65
2022-12-16T12:55:00,axn,39.68
2022-12-16T12:56:00,axn,39.82
2022-12-16T12:57:00,axn,39.37
2022-12-16T12:58:00,axn,39.68
2022-12-16T12:59:00,axn,39.59
2022-12-16T13:00:00,axn,39.90
2022-12-16T13:01:00,axn,39.75
2022-12-16T13:02:00,axn,39.94
2022-12-16T13:03:00,axn,40.27
2022-12-16T13:04:00,axn,55.15
2022-12-16T13:05:00,axn,39.87
2022-12-16T13:06:00,axn,40.09
2022-12-16T13:07:00,axn,39.91
2022-12-16T13:08:00,axn,39.81
2022-12-16T13:09:00,axn,40.41
2022-12-16T13:10:00,axn,40.29
2022-12-16T13:11:00,axn,40.19
2022-12-16T13:12:00,axn,40.28
2022-12-16T13:13:00,axn,41.34
2022-12-16T13:14:00,axn,40.26
2022-12-16T13:15:00,axn,45.37
2022-12-16T13:16:00,axn,45.84
2022-12-16T13:17:00,axn,43.83
2022-12-16T13:18:00,axn,41.10